Regional Weather Roundup
Issued by NWS Sterling, VA

Home | Current Version | Previous Version | Graphics & Text | Print | Product List | Glossary Off
Versions: 1 2 3 4 5 6 7 8 9 10 11 12 13 14 15 16 17 18 19 20 21 22 23 24 25 26 27 28 29 30 31 32 33 34 35 36 37 38 39 40 41 42 43 44 45 46 47 48 49 50

000
ASUS41 KLWX 301910
RWRLWX

REGIONAL WEATHER ROUNDUP
NATIONAL WEATHER SERVICE BALTIMORE MD/WASHINGTON DC
300 PM EDT SAT MAY 30 2015

Note: "FAIR" indicates few or no clouds below 12,000 feet
with no significant weather and/or obstructions to visibility.
 TC=TEMPERATURE CELSIUS

 * =Non NWS site. Station does not report precipitation (e.g. rain,
    snow, etc.), thunder, or fog.

DCZ001-MDZ009-015-VAZ040>042-051-053>054-302000-
WASHINGTON METRO

CITY           SKY/WX    TMP DP  RH WIND       PRES   REMARKS
WASHINGTON NAT MOSUNNY   89  68  49 S13       30.11F HX  93
DULLES         MOSUNNY   86  66  51 SW12G21   30.10F
ANDREWS AFB    MOSUNNY   85  68  57 S12       30.11F
FT BELVOIR     SUNNY     87  65  46 S8        30.11F
QUANTICO       SUNNY     82  69  64 S10       30.12F
COLLEGE PARK*  SUNNY     88  61  40 S7        30.10F
LEESBURG*      MOSUNNY   90  66  45 S17G23    30.11F HX  92
MANASSAS*      MOSUNNY   86  63  45 S15       30.11F
GAITHERSBURG*  MOSUNNY   88  64  45 S8G16     30.15F

$$

MDZ006>007-011-014-302000-
BALTIMORE METRO

CITY           SKY/WX    TMP DP  RH WIND       PRES   REMARKS
BWI AIRPORT    PTSUNNY   85  67  54 SE8       30.10F
MD SCIENCE CTR   N/A     87  67  51 MISG      30.10F HX  90
MARTIN STATE   MOSUNNY   84  73  70 SE16      30.13F HX  91
ANNAPOLIS      SUNNY     81  67  62 SE16G22   30.12F
FORT MEADE*    SUNNY     86  63  45 S10G18    30.13F

$$

MDZ012-015-019>023-302000-
MARYLAND EASTERN SHORE

CITY           SKY/WX    TMP DP  RH WIND       PRES   REMARKS
OCEAN CITY     SUNNY     76  66  71 S10G20    30.19F
SALISBURY      PTSUNNY   82  67  60 S15       30.16F
BAY BRIDGE AP*   N/A    N/A N/A N/A S13G20    30.12F
CAMBRIDGE*     SUNNY     82  63  51 S10G18    30.15F
EASTON*        MOSUNNY   86  66  51 SW12G21   30.18F

$$

MDZ017>025-302000-
SOUTHERN MARYLAND

CITY           SKY/WX    TMP DP  RH WIND       PRES   REMARKS
PATUXENT RIVER MOSUNNY   79  68  69 SE16      30.14F
ST INIGOES       N/A     84  69  60 SE8       30.14F
LEONARDTOWN*   MOSUNNY   82  63  51 SE9       30.15F

$$

MDZ003>005-302000-
NORTH CENTRAL MARYLAND

CITY           SKY/WX    TMP DP  RH WIND       PRES   REMARKS
FREDERICK*     MOSUNNY   90  66  45 S10       30.12F HX  92
HAGERSTOWN APT MOSUNNY   86  63  45 S12       30.09F
WESTMINSTER*   MOSUNNY   90  66  45 S12G18    30.11F HX  92

$$

MDZ501>502-302000-
WESTERN MARYLAND

CITY           SKY/WX    TMP DP  RH WIND       PRES   REMARKS
OAKLAND*       MOSUNNY   73  72  94 SW7       30.19F
CUMBERLAND*    CLOUDY    72  64  78 SW6       30.15R

$$

VAZ025>031-302000-
SHENANDOAH VALLEY

CITY           SKY/WX    TMP DP  RH WIND       PRES   REMARKS
WINCHESTER*    MOSUNNY   86  66  51 S12       30.11F
FRONT ROYAL*   FAIR      81  64  57 S3        30.10F
LURAY*         MOCLDY    88  64  45 S7        30.11F
NEW MARKET*    MOCLDY    85  65  50 S7        30.08F
STAUNTON*      PTSUNNY   87  61  42 S9        30.15F
WAYNESBORO*    FAIR      81  62  52 S9        30.16F

$$

WVZ021-048>050-054>055-302000-
EASTERN WEST VIRGINIA PANHANDLE

CITY           SKY/WX    TMP DP  RH WIND       PRES   REMARKS
MARTINSBURG    MOSUNNY   83  66  56 S10       30.10F
PETERSBURG*    PTSUNNY   77  64  64 CALM      30.14F

$$

VAZ036>039-050-302000-
CENTRAL FOOTHILLS

CITY           SKY/WX    TMP DP  RH WIND       PRES   REMARKS
CHARLOTTESVILL PTSUNNY   86  61  42 S10G20    30.12F
CULPEPER*      MOSUNNY   86  62  43 S9        30.11F
ORANGE*        PTSUNNY   86  61  42 SE6       30.13F
GORDONSVILLE*  MOCLDY    85  65  50 S6        30.11F
WARRENTON*     FAIR      88  67  49 S12       30.11F HX  91

$$

VAZ055>057-302000-
NORTH AND CENTRAL PIEDMONT

CITY           SKY/WX    TMP DP  RH WIND       PRES   REMARKS
FREDERICKSBRG* SUNNY     90  63  39 S8G16     30.11F HX  91
STAFFORD*      MOSUNNY   85  62  45 S8        30.16F

$$

NCZ024-NYZ072-PAZ021-071-VAZ022-071-302000-
OTHER REGIONAL OBSERVATIONS

CITY           SKY/WX    TMP DP  RH WIND       PRES   REMARKS
NEW YORK CITY  SUNNY     84  64  50 VRB7      30.14F
PHILADELPHIA   MOSUNNY   86  66  51 S13       30.12F
PITTSBURGH     TSTM      70  66  87 S5        30.08F
ROANOKE        PTSUNNY   83  59  44 SE16      30.16F
RICHMOND       MOSUNNY   88  63  43 S12       30.14F
RALEIGH        PTSUNNY   84  65  52 SE6       30.17F

$$

ANZ530>537-302000-
MARINE OBSERVATIONS

STATION/POSITION TIME  TEMP    WIND        PRES
                       AIR SEA DIR/SP/G
                 (UTC) (F)     (DEG/KT/KT) (MB)
THOMAS PT LIGHT  1900   76 73  160/ 14/ 15 1020.6F
BALT KEY BRIDGE  1800   79     130/ 17/ 19 1019.7F
COVE POINT       1800   72     180/ 16/ 18 1022.1F
LEWISETTA        1800   82 78              1021.1F
SOLOMONS ISLAND  1800      76                N/A
PINEY POINT      1800          150/ 15/ 16   N/A

$$



USA.gov is the U.S. government's official web portal to all federal, state and local government web resources and services.